This is the latest recevied weather packets stored in our database for station/object NN5DX-12. If no packets are shown the sender has not sent any weather packets the latest 10 day(s).
| Time | Temp. | Humidity | Pressure | Rain* | Wind** | Luminosity | Snow |
|---|---|---|---|---|---|---|---|
| 1778131216 | -1.67° C | 68% | 1020.4 hPa | 0 mm | - | - | - |
| 1778130916 | -1.67° C | 67% | 1021 hPa | 0 mm | - | - | - |
| 1778130617 | -2.22° C | 68% | 1020.4 hPa | 0 mm | - | - | - |
| 1778130317 | -2.22° C | 68% | 1020.4 hPa | 0 mm | - | - | - |
| 1778130017 | -1.67° C | 69% | 1020.3 hPa | 0 mm | - | - | - |
| 1778129716 | -2.22° C | 69% | 1020.3 hPa | 0 mm | - | - | - |
| 1778129416 | -2.22° C | 70% | 1020.3 hPa | 0 mm | - | - | - |
| 1778129116 | -2.22° C | 71% | 1020.3 hPa | 0 mm | - | - | - |
| 1778128816 | -2.22° C | 70% | 1020.3 hPa | 0 mm | - | - | - |
| 1778128516 | -2.22° C | 70% | 1020.2 hPa | 0 mm | - | - | - |
| 1778128216 | -1.67° C | 71% | 1020.2 hPa | 0 mm | - | - | - |
| 1778127917 | -1.67° C | 69% | 1020.2 hPa | 0 mm | - | - | - |
| 1778127616 | -1.67° C | 70% | 1020.1 hPa | 0 mm | - | - | - |
| 1778127316 | -1.67° C | 71% | 1020 hPa | 0 mm | - | - | - |
| 1778127016 | -2.22° C | 74% | 1020.1 hPa | 0 mm | - | - | - |
| 1778126716 | -2.22° C | 77% | 1019.9 hPa | 0 mm | - | - | - |
| 1778126417 | -2.78° C | 80% | 1019.2 hPa | 0 mm | - | - | - |
| 1778126116 | -3.33° C | 84% | 1019.3 hPa | 0 mm | - | - | - |
| 1778125816 | -3.33° C | 86% | 1019.3 hPa | 0 mm | - | - | - |
| 1778125516 | -3.33° C | 86% | 1019.4 hPa | 0 mm | - | - | - |
| 1778125217 | -2.78° C | 84% | 1019.3 hPa | 0 mm | - | - | - |
| 1778124916 | -2.78° C | 83% | 1019.3 hPa | 0 mm | - | - | - |
| 1778124616 | -2.78° C | 84% | 1019.3 hPa | 0 mm | - | - | - |
| 1778124316 | -2.78° C | 85% | 1019.3 hPa | 0 mm | - | - | - |
| 1778124017 | -2.22° C | 84% | 1019.8 hPa | 0 mm | - | - | - |
* Rain latest hour (hover to see other rain measurements)
** Current wind speed in m/s (hover to see current wind gust speed)